SARP

Details ICAO SARP (PSS)
Name POSADAS
Region Argentina
Timezone America/Argentina/Cordoba (UTC-3.0)
Plans Departing 17
Arriving 28
Stats Elevation 430 ft / 131 m (AMSL)
Location -27.385838° -55.970726°
Runways 1
Magnetic Variation 14.625° W
Sunrise 2018-05-20 10:21:14 UTC / 2018-05-20 07:21:14 Local
Sunset 2018-05-20 21:02:26 UTC / 2018-05-20 18:02:26 Local
Advertisement - Login to hide

Runways

ID Width Length Bearing (true) Bearing (mag) Surface Threshold Offset Overrun Length
01 98 ft / 30 m 7,433 ft / 2,266 m 359.33° 13.95° Asphalt 0 ft / 0 m 75 ft / 23 m
19 98 ft / 30 m 7,433 ft / 2,266 m 179.33° 193.95° Asphalt 0 ft / 0 m 75 ft / 23 m

Approach Navaids

Runway Type Ident Frequency Range Bearing (true) Bearing (mag) Slope Elevation
19 Localiser PO 109.90 MHz 18 nm / 33 km 178.76° 193.38° - 430 ft / 131 m (AMSL)
19 Glidescope PO 109.90 MHz 10 nm / 19 km 179.33° 193.95° 3.00° 430 ft / 131 m (AMSL)
19 DME PO 109.90 MHz 18 nm / 33 km - - - 429 ft / 131 m (AMSL)

Map

Weather


0- 5 10 15 20 25 30 35+ Temperature / ° C

Clouds and Precipitation
Forecast for 2018-05-20 12:00 UTC. Updated 3 hours ago

Ground ~20,000 ft ~40,000 ft Winds

METAR

SARP 201400Z 23007KT 9999 SCT015 14/08 Q1021

TAF

TAF SARP 201100Z 2012/2112 23005KT CAVOK TX20/2018Z TN08/2110Z PROB30 2107/2111 3000 BR NSC

Frequencies

Tower 120.10 MHz TWR/APP
Tower 118.50 MHz TWR/APP
Warning: Do not use this data for real-world aviation or navigation. No guarantee of current accuracy is given.